Wind_Speed
4 4 13 11 10 9 5 3 1 1 2 2 16 21 18 12 13 15 18 18 18 18 18 23 27 32 35 38 38 38 34 30 24 25 25 25 25 25 24 24 22 24 26 26
4 9 7 4 6 9 10 2 4 5 9 4 6 12 13 10 12 14 17 17 14 12 10 11 19 31 33 32 37 33 30 25 24 27 26 14 20 16 21 20 20 22 24 23
7 7 3 5 5 5 4 5 3 6 9 10 9 16 15 12 11 15 15 15 14 15 16 15 12 19 29 31 36 30 26 20 22 26 23 14 15 10 17 20 21 23 22 21
6 7 7 7 5 11 11 4 2 3 3 7 3 10 16 15 20 14 12 15 15 11 13 13 10 12 24 35 31 26 18 17 22 25 24 25 18 13 16 26 24 21 20 21
10 6 3 4 6 7 6 11 8 4 4 4 6 4 14 4 13 9 14 18 19 21 15 14 12 14 28 28 24 15 14 17 21 24 23 24 21 19 21 23 23 21 19 16
12 9 4 7 8 5 4 5 4 3 3 6 7 8 22 10 18 14 8 13 11 9 10 11 11 15 18 12 9 10 16 19 23 26 24 24 26 25 26 23 23 20 18 18
9 10 13 6 4 2 4 5 1 1 3 9 14 9 21 3 7 6 8 10 9 9 9 9 8 7 4 5 10 15 19 22 23 23 26 26 27 28 28 24 22 20 19 17
5 4 7 8 10 7 6 8 4 6 5 4 7 12 8 13 15 12 9 11 10 10 9 9 8 5 7 10 15 20 23 24 21 23 24 25 24 24 23 23 21 19 18 15
4 1 5 6 2 10 5 5 9 2 3 1 5 7 9 12 19 8 7 8 11 10 8 4 2 6 10 13 18 25 26 25 24 25 25 23 21 20 19 18 17 17 14 12
3 5 5 4 3 11 5 4 4 1 4 5 5 6 7 7 9 5 9 10 12 10 2 4 7 9 11 18 22 26 26 26 25 25 24 22 20 20 20 19 17 13 12 10
2 0 4 2 4 5 1 1 2 3 4 3 3 5 6 4 5 7 9 9 11 11 7 9 9 9 14 19 22 24 28 28 27 26 26 24 22 20 18 15 13 13 13 13
2 1 3 6 6 4 2 3 2 4 6 7 3 6 5 5 4 6 13 15 8 3 7 10 11 12 12 15 19 23 26 29 29 27 26 23 20 17 15 14 13 14 14 11
1 1 3 5 3 4 3 3 4 2 1 5 4 7 5 10 15 13 14 9 4 2 6 9 12 10 9 13 18 22 25 28 27 26 24 21 18 16 15 15 15 13 12 11
3 4 5 4 2 2 4 8 9 5 4 7 15 12 21 22 13 17 19 9 2 4 7 8 11 9 9 13 17 20 25 27 25 24 22 19 16 14 14 13 13 11 12 9
6 6 6 9 11 10 11 13 14 14 12 9 3 3 13 15 16 16 12 8 5 6 7 8 9 10 9 12 16 21 26 25 23 22 19 17 14 13 13 11 12 12 9 7
2 3 2 10 11 13 16 15 17 18 18 17 15 14 16 18 12 9 13 11 7 8 9 7 8 9 11 13 16 20 24 24 22 19 17 16 15 14 15 13 11 10 8 11
4 2 1 5 5 7 9 18 19 19 15 11 15 7 15 11 11 12 12 8 9 11 11 11 10 10 10 17 20 22 25 22 19 17 16 16 15 15 15 13 9 10 12 13
7 7 3 3 1 5 4 4 10 20 16 14 9 10 5 9 14 15 6 7 7 10 11 11 9 7 11 19 24 26 23 21 18 15 15 16 16 17 16 14 9 11 11 13
14 9 3 3 4 9 11 2 5 5 2 9 6 11 9 11 11 6 6 3 4 8 9 9 15 16 15 20 26 25 21 20 17 15 17 19 18 18 16 15 11 11 12 13
13 13 7 4 4 5 2 2 10 7 3 5 3 8 10 9 4 5 4 4 3 5 10 11 17 17 20 21 25 23 20 19 18 16 19 19 18 18 17 17 14 12 12 12
1 3 12 9 5 6 7 12 10 5 0 8 7 8 11 5 6 3 3 4 2 2 9 19 21 17 22 26 25 19 20 20 22 17 19 19 17 17 16 16 15 13 13 12
3 4 2 3 4 4 10 10 5 6 11 11 9 9 12 12 13 6 4 3 2 4 9 20 16 16 22 26 25 19 19 24 19 18 21 19 16 16 15 14 11 12 14 14
2 2 3 2 2 4 7 11 16 17 14 9 10 12 10 12 6 4 5 4 6 3 10 19 18 17 23 27 26 21 24 22 20 19 21 18 15 14 14 14 12 12 13 13
3 0 3 5 2 10 6 11 11 11 10 10 10 10 9 5 6 3 5 7 6 2 6 11 17 12 15 26 28 30 26 23 22 20 20 18 16 14 13 12 11 11 13 10
3 5 6 4 6 13 5 13 12 15 16 17 10 5 7 3 5 5 6 7 6 8 2 13 13 15 17 25 28 29 26 25 23 21 21 19 17 16 14 10 9 8 10 12
2 4 3 3 11 6 9 11 14 16 15 15 12 11 11 4 9 11 10 10 13 8 6 5 11 13 17 24 26 28 26 27 24 20 20 21 20 18 15 13 10 6 6 6
Wind_Direction
266 198 222 228 239 256 42 71 56 322 263 282 222 249 253 250 259 257 264 262 264 272 278 280 279 287 284 290 290 291 287 276 242 212 196 204 204 211 215 225 229 229 222 218
339 261 260 247 203 244 271 264 256 266 260 214 275 277 280 264 258 257 257 260 257 259 270 266 265 271 275 281 289 288 287 271 232 211 201 199 193 201 214 219 220 220 214 210
198 254 336 266 230 230 203 218 209 226 293 283 301 283 272 262 234 248 253 258 254 249 256 258 260 261 276 281 283 293 289 253 216 208 197 172 164 172 192 206 210 209 207 199
215 254 233 224 232 225 242 178 247 324 166 258 21 289 271 271 264 249 251 252 260 245 240 254 249 263 266 273 284 293 265 215 207 206 190 181 169 162 194 194 195 193 193 195
237 197 220 240 212 186 244 200 226 222 253 268 258 310 281 241 266 270 252 255 252 252 248 247 243 247 262 270 279 266 217 186 182 185 185 177 175 177 177 180 174 167 184 193
250 252 204 217 241 204 204 180 167 163 150 253 207 194 279 251 248 255 260 252 255 253 254 250 254 259 266 270 231 193 177 162 167 173 173 172 168 160 158 161 164 174 191 198
285 235 227 202 245 236 161 103 145 90 175 231 181 184 236 260 306 242 278 283 265 258 268 264 260 254 241 198 169 165 161 149 162 162 171 167 163 160 161 167 167 168 170 178
284 180 172 191 200 202 184 163 178 177 183 220 199 226 248 234 255 277 281 263 282 275 253 260 266 201 180 174 147 145 145 144 151 159 160 157 153 157 162 166 168 168 168 173
331 141 356 19 351 172 198 167 212 22 281 199 212 279 288 283 286 290 289 303 291 291 297 285 162 158 152 133 133 141 140 139 148 148 144 148 150 151 151 154 156 154 158 172
294 294 134 195 101 303 180 184 107 330 206 247 254 258 233 318 286 355 324 302 298 282 160 164 157 144 122 130 135 140 139 142 143 141 140 141 143 144 145 149 152 154 161 167
288 178 312 335 202 185 153 293 201 174 184 211 304 266 220 248 70 334 304 319 298 295 170 158 146 124 119 126 129 130 135 138 139 139 137 136 138 142 147 151 154 154 158 151
322 1 283 264 290 343 338 257 230 205 252 252 130 279 330 112 63 8 348 330 331 35 151 149 135 125 115 117 123 129 137 139 141 141 139 138 140 144 145 148 151 154 151 145
335 308 312 323 350 28 86 315 268 228 158 221 224 242 279 328 0 350 337 333 332 138 143 142 132 128 128 126 130 137 143 144 145 144 141 144 145 146 147 149 154 160 158 154
257 216 218 221 293 346 298 296 299 273 255 251 245 288 296 303 337 335 322 323 206 154 157 154 136 132 131 134 139 144 148 150 149 148 152 152 153 152 149 155 164 160 164 168
183 229 220 243 260 268 259 268 271 262 256 249 327 291 288 304 309 298 291 317 196 163 156 164 152 140 135 137 144 150 155 156 155 158 161 162 160 154 151 152 165 170 169 193
165 265 258 280 263 245 251 259 258 251 246 255 257 269 272 278 283 287 294 315 206 186 167 159 156 153 152 153 155 156 161 164 166 168 171 170 169 163 161 155 157 174 180 170
194 238 269 269 264 322 288 246 237 243 238 219 234 224 260 283 291 281 284 299 214 189 173 163 166 169 167 162 163 162 168 169 172 176 177 177 170 163 166 166 172 175 160 152
202 196 217 266 8 245 227 341 301 244 230 221 248 247 230 268 276 274 264 275 207 183 172 161 159 148 178 165 170 169 170 173 178 180 180 178 172 167 167 165 167 167 161 161
211 201 249 231 220 285 298 35 350 356 219 220 245 262 283 298 286 271 230 272 186 168 160 162 157 157 175 174 175 171 171 179 180 181 181 176 175 170 171 170 159 162 160 157
215 215 194 180 244 258 139 265 335 297 278 83 297 285 279 298 226 245 192 205 227 153 155 149 151 161 173 182 178 171 168 178 186 188 180 179 178 177 176 179 172 171 176 165
144 197 225 233 241 276 15 327 306 199 278 320 306 299 285 254 238 289 292 221 246 142 161 152 154 164 180 182 180 167 172 183 196 188 182 185 185 184 180 183 183 180 180 175
304 319 256 214 236 248 6 321 301 337 314 294 308 303 289 281 282 238 226 168 35 337 166 154 156 158 177 183 178 168 180 196 187 183 186 189 186 185 181 184 181 181 180 173
319 267 291 241 296 259 282 266 276 279 279 287 309 300 281 290 267 223 201 74 21 283 177 162 161 155 170 182 184 177 198 192 181 184 192 189 184 183 182 178 178 175 177 169
279 20 269 293 264 308 266 331 310 306 292 334 326 282 290 275 264 174 147 70 61 64 130 166 143 156 163 179 189 197 195 190 181 187 192 185 179 175 177 180 182 181 179 158
249 314 298 254 287 324 339 332 322 340 3 4 357 358 342 292 59 41 75 84 59 49 136 161 155 167 176 180 188 196 195 187 182 190 190 184 181 177 163 165 171 182 191 189
281 301 330 322 302 302 292 314 358 358 355 10 1 7 353 315 56 58 42 33 40 22 43 133 155 162 176 180 185 190 191 187 186 185 185 186 179 177 173 165 159 166 161 165
Height
745 750 742 736 735 733 736 738 739 730 722 724 724 713 709 706 703 701 694 690 685 682 678 676 675 675 673 672 671 670 668 668 672 676 682 688 690 694 698 704 710 713 716 719
753 751 739 733 733 736 737 742 744 737 728 729 729 723 716 711 704 696 691 686 685 682 678 672 670 668 666 666 664 663 663 664 666 669 675 681 685 691 696 703 706 710 714 718
752 742 734 734 733 735 736 740 740 743 730 724 730 718 708 695 692 686 681 679 676 674 671 667 665 662 660 659 657 658 657 659 662 668 673 678 683 690 696 700 704 708 713 719
742 733 732 733 733 732 739 729 730 732 738 747 726 732 705 693 683 682 679 675 669 669 664 660 660 656 652 651 652 651 652 653 658 665 669 673 676 684 689 693 701 708 713 718
731 727 728 730 728 724 730 725 731 733 740 739 734 749 683 683 684 681 672 664 660 653 654 654 652 648 646 647 647 648 650 651 656 664 668 672 676 681 687 694 703 709 714 718
726 721 721 722 718 718 717 726 732 736 745 754 734 743 688 688 673 670 663 659 654 654 651 647 642 643 642 642 644 647 650 651 656 662 667 670 675 682 688 695 705 709 714 718
722 717 711 713 721 718 721 737 754 760 761 741 717 735 681 668 666 666 661 657 652 648 645 641 640 640 640 643 645 648 650 653 659 661 668 672 678 683 688 695 702 708 712 715
730 720 714 708 716 723 727 732 747 736 741 736 717 717 681 663 654 651 653 653 648 643 638 636 636 638 640 643 644 646 651 655 660 665 671 676 682 686 692 696 702 707 710 714
736 723 716 709 707 711 719 728 717 728 722 727 716 690 673 659 654 654 655 650 646 639 636 635 636 637 640 642 644 648 652 656 664 669 673 679 684 689 694 699 704 708 711 714
735 734 713 713 714 709 711 710 727 739 728 725 707 697 686 668 664 656 654 650 642 635 636 637 637 638 640 643 646 650 654 661 667 672 676 681 686 691 696 702 705 709 711 714
736 740 718 714 713 713 711 717 714 722 726 716 710 696 669 660 662 660 658 647 642 633 635 635 637 639 642 646 650 654 658 664 670 674 679 684 690 694 699 703 706 709 712 715
739 744 743 725 712 713 713 713 714 721 714 708 717 703 658 658 658 657 651 645 643 638 636 635 637 641 645 650 654 658 663 668 673 678 682 687 692 696 700 704 707 710 712 716
740 747 747 726 720 715 718 715 715 719 722 719 713 687 656 651 654 655 652 651 648 643 641 640 639 644 648 653 656 662 667 671 676 681 685 690 694 698 701 705 708 710 713 717
741 745 744 751 726 726 728 720 720 717 724 703 691 692 670 660 666 659 649 648 646 645 643 645 643 647 651 656 660 665 670 674 679 683 687 691 695 699 703 706 708 711 714 717
744 738 741 737 731 726 724 719 715 715 708 711 697 694 683 674 670 661 652 646 646 646 645 647 649 649 653 658 663 668 672 676 681 685 689 692 697 700 703 706 709 712 715 717
738 736 733 728 721 717 717 709 707 703 700 697 696 692 679 669 664 658 648 646 645 644 643 647 650 653 654 659 664 669 673 677 682 686 690 694 697 701 704 707 710 712 714 716
738 735 738 729 713 715 714 694 690 684 682 685 691 687 669 668 660 655 646 644 639 640 641 644 649 654 656 658 663 667 673 678 683 687 691 695 698 701 705 708 710 712 714 717
728 731 735 733 724 723 679 677 674 667 668 675 675 672 665 665 658 649 645 642 635 636 639 642 648 653 661 660 663 668 674 679 683 688 691 695 698 701 705 708 710 712 715 717
722 721 727 730 718 690 675 676 681 675 668 664 669 667 666 663 659 644 639 636 632 632 635 641 644 651 659 664 664 669 674 680 684 688 691 694 698 702 705 708 711 714 716 719
718 715 719 715 713 703 681 696 688 682 669 667 668 666 665 667 659 644 634 634 633 628 631 637 644 651 657 664 667 670 675 680 684 687 690 695 698 701 705 708 712 714 717 720
710 715 714 709 705 689 690 691 687 671 673 668 666 665 663 660 647 638 634 633 630 629 631 635 641 648 655 662 667 671 675 679 683 687 691 695 699 702 705 709 712 714 717 720
713 711 700 700 697 687 701 692 677 676 676 665 662 659 656 652 642 635 633 632 630 628 631 633 641 647 654 661 666 670 674 677 683 687 691 695 699 703 706 709 712 715 717 720
715 718 712 710 699 700 703 699 690 681 675 663 658 653 650 641 635 633 634 630 627 626 628 631 637 645 653 659 664 669 672 677 683 687 691 695 699 703 706 709 712 714 717 720
713 709 707 704 700 691 691 687 682 672 665 657 652 646 642 638 635 631 631 629 630 627 628 633 637 645 651 657 662 666 671 677 681 686 691 695 699 702 706 709 712 714 717 720
717 714 705 701 695 686 684 681 675 665 657 653 645 643 640 636 630 628 627 630 628 626 630 633 633 640 647 653 659 664 670 675 680 685 690 695 699 702 705 709 712 714 717 719
715 710 704 699 697 694 685 679 673 667 661 659 655 648 643 639 632 630 630 626 616 632 630 632 635 640 646 652 657 663 669 674 679 686 690 694 698 701 704 708 711 714 717 719